Погода в Оймяконе

Погода в Оймяконе : погода сейчас, прогноз погоды и архив. Всё, что Вы хотите узнать о погоде в Оймяконе!

Хотите узнать прогноз погоды в Оймяконе? Тогда Вам сюда: Погода в Оймяконе

Поиск расширенной информации на нашем сайте:

Другие новости

Новости СМИ2

Главная страница сайта

Новости сайта

03.07.2017

Напоминаем, что на нашем специализированном сайте Метеоцентр.Азия вы можете получить высокодетализированные автоматические прогнозы погоды по пунктам России, СНГ и мира в авиационном формате (включающие направление и скорость ветра, видимость, явления погоды, количество и форму облачности, нижнюю и верхнюю границу облачности).

Рекомендуем: Заливка фундамента в Калуге облицовка камнем фундамента дома Калуга.

Погода в Оймяконе - сегодня

Время (UTC), дата Ветер
(°,м/с) 
Видим.   Явления Облачность Т
(°С)
Тd
(°С)
f(%) Тe
(°С)
Pmin
(гПа)
dP
(гПа)
Po
(мм)
O2
(г/м3)
Тmin Tmax R s Состояние
почвы
21 19.07.17 080 (В) 20000 м  {туман}  9/4 200 м средняя 
[Sc|Ac trans]
+10.6 +10 96 +14  1001.6  0.3  688  265  +9.4      влажная 
00 20.07.17 130 (ЮВ) 20000 м  слаб. ливневой дождь{туман}  10/8 1000 м кучево-дожд., средняя 
[Cb cap|Ac As]
+13.5 +10 79 +17  1001.3  0.6  688  262           
03 20.07.17 120 (ЮВ) 20000 м  слаб. дождь{ливн. осадки}  10/1 300 м средняя 
[Frnb|As op]
+10.4 +8.8 90 +12  1002.8  0.4  689  266           
06 20.07.17 090 (В) 20000 м  слаб. дождь{ливн. осадки}  10/6 600 м средняя 
[Frnb|As op]
+10.6 +8.5 87 +12  1002.9  0.3  689  266           
09 20.07.17 100 (В) 20000 м  слаб. дождь  10/8 300 м средняя 
[St|Ac As]
+11.2 +10 92 +15  1003.3  0.4  689  265    +13.5     
12 20.07.17 150 (ЮВ) 20000 м  слаб. ливневой дождь  9/8 1000 м кучево-дожд., средняя 
[Cb cap|Ac As]
+9.7 +8.2 90 +10  1004.9  1.1  690  267           
15 20.07.17 тихо ()   20000 м  {ливн. осадки}  8/8 1000 м 
[Sc]
+7.8 +7.4 97 +8  1005.9  0.3  690  269           
18 20.07.17 060 (СВ) 20000 м  {ливн. осадки}  9/9 1000 м 
[Sc]
+7.4 +6.7 95 +7  1006.2  0.2  690  270           
21 20.07.17 060 (СВ) 20000 м  слаб. ливневой дождь  9/9 1000 м кучево-дожд. 
[Cb cap]
+9.7 +7.8 88 +11  1005.5  0.1  690  267  +7    0.7    влажная 
00 21.07.17 280 (З) 20000 м  {ливн. осадки}  10/9 1000 м кучево-дожд., средняя, верхняя 
[Cb cap|Ac trans|Ci fib]
+12.4 +9.7 84 +16  1004.8  -1.3  690  264           
03 21.07.17 280 (З) 20000 м    10/9 1140 м кучево-дожд., средняя, верхняя 
[Cb cap|Ac trans|Ci fib]
+15 +9.4 69 +18  1002.7  -0.8  689  262           
06 21.07.17 330 (СЗ) 20000 м    10/9 1000 м кучево-дожд., средняя 
[Cb cap|Ac und]
+13.4 +9.5 77 +15  1003  -0.1  689  263           
09 21.07.17 210 (ЮЗ) 20000 м  слаб. ливневой дождь  10/10 300 м кучево-дожд. 
[Cb cap]
+10.6 +9 90 +13  1004.7  0.7  690  266    +15  0.6     
12 21.07.17 290 (З) 20000 м  слаб. ливневой дождь  10/10 300 м кучево-дожд. 
[Cb cap]
+9.5 +8.9 96 +11  1005.8  0.7  690  267           
15 21.07.17 270 (З) 20000 м  слаб. ливневой дождь  9/9 300 м кучево-дожд., средняя 
[Cb cap|Ac trans]
+8.7 +8.2 97 +8  1005.8  -0.2  690  268           
18 21.07.17 280 (З) 20000 м  в посл. час ливневой дождь  8/8 300 м кучево-дожд. 
[Cb cap]
+8 +7.4 96 +8  1006.7  0.4  691  269           
21 21.07.17 270 (З) 20000 м    9/9 300 м 
[Frnb]
+9.7 +7.6 87 +10  1006  691  267  +6.2      влажная 
00 22.07.17 300 (СЗ) 20000 м    8/8 1000 м 
[Cu med, cong]
+11.6 +8.4 81 +13  1004.4  -0.9  690  265           
03 22.07.17 320 (СЗ) 20000 м    8/8 1000 м 
[Cu med, cong]
+15.6 +7.8 60 +16  1001.8  -1.3  689  261           
06 22.07.17 010 (С) 20000 м    8/8 1000 м 
[Cu med, cong]
+17.1 +7.1 52 +18  999.8  -1.4  688  260           
09 22.07.17 290 (З) 20000 м  осадки на расстоянии  8/8 1000 м кучево-дожд. 
[Cb cap]
+15.3 +7.4 59 +15  1000.2  -0.2  688  261    +17.3       
12 22.07.17 280 (З) 20000 м    10/9 1000 м кучево-дожд., средняя, верхняя 
[Cb cap|Ac trans|Ci fib]
+11.4 +8 80 +11  1001.4  688  264           
15 22.07.17 270 (З) 20000 м  слаб. ливневой дождь  10/10 1000 м кучево-дожд. 
[Cb cap]
+8.8 +8.4 97 +9  1001  -1.1  687  267           
18 22.07.17 270 (З) 10 км  слаб. ливневой дождь  10/8 300 м кучево-дожд., средняя 
[Cb cap|As op]
+7.8 +7.1 95 +7  1000.4  -0.8  686  268           
21 22.07.17 260 (З) 20000 м  слаб. ливневой дождь  9/9 300 м кучево-дожд. 
[Cb cap]
+6.6 +5.7 94 +5  1000.6  -0.3  686  269  +6.6    15    влажная 
Время (UTC), дата Ветер
(°,м/с) 
Видим.   Явления Облачность Т
(°С)
Тd
(°С)
f(%) Тe
(°С)
Pmin
(гПа)
dP
(гПа)
Po
(мм)
O2
(г/м3)
Тmin Tmax R s Состояние
почвы

Для получения пояснительной информации подведите курсор к названию столбца.

ПОГОДА в Оймяконе - архив

Всё, что Вы хотите узнать о погоде в Оймяконе - удобно и подробно!

Выберите нужную дату (начиная с 1 января 2015* года) и нажмите кнопку "Найти".
Будут отображены архивные сводки погоды по пункту Оймякон, начиная с указанной даты.


Отображать данные в формате CSV (для использования в таблицах Excel)


Внимание! Наш архив погоды предназначен исключительно для личного некоммерческого использования в познавательных целях. Если Вам необходимы официальные справки о состоянии погоды (для производственных, юридических, коммерческих и т.п. целей), обращайтесь в органы Росгидромета.

*Примечание: данная дата относится к архиву по метеостанциям СССР (Россия, СНГ, Балтия).
Архив по метеостанциям Зарубежной Европы и Азии (кроме Китая) хранится 10 дней, по другим регионам земного шара (Китай, Африка, Америка, Австралия, Океания) - 1 день.

Оймякон - район местоположения метеостанции


Название, широта, долгота, высота метеостанции:
Оймякон 63.2°ш. 143.2°д. 741 м над ур. моря [Российская Федерация]

Дополнительная информация

В oтличие oт бoльшинства пoгoдных сайтoв мы публикуем пoдрoбную метеoинфoрмацию в детальнoм прoфессиoнальнoм фoрмате.

Характеристики температуры и влажнoсти вoздуха измеряются на высoте 2 м в тени вдали oт зданий и деревьев.
Скoрoсть ветра измеряется на высoте 10 м (на урoвне рoста челoвека скoрoсть ветра ниже в 1.5-2 раза). Если метеoстанция нахoдится в гoрoде или в лесу, тo скoрoсть ветра занижена на 2-4 м/с пo сравнению с oткрытым местoм. Скoрoсть ветра над акватoриями крупных рек и oзёр, а также на вершинах хoлмoв на 2-5 м/с выше, чем в oбычных услoвиях.
Атмoсфернoе давление в разных тoчках местнoсти мoжет значительнo oтличаться oт давления на метеoстанции, в зависимoсти oт услoвий рельефа (при пoдъёме на 10 м давление пoнижается примернo на 1 мм рт.ст.).